Regional Weather Roundup
Issued by NWS Sterling, VA

Home | Current Version | Previous Version | Graphics & Text | Print | Product List | Glossary On
Versions: 1 2 3 4 5 6 7 8 9 10 11 12 13 14 15 16 17 18 19 20 21 22 23 24 25 26 27 28 29 30 31 32 33 34 35 36 37 38 39 40 41 42 43 44 45 46 47 48 49 50
000
ASUS41 KLWX 281610
RWRLWX

REGIONAL WEATHER ROUNDUP
NATIONAL WEATHER SERVICE BALTIMORE MD/WASHINGTON DC
1200 PM EDT FRI AUG 28 2015

Note: "FAIR" indicates few or no clouds below 12,000 feet
with no significant weather and/or obstructions to visibility.
 TC=TEMPERATURE CELSIUS

 * =Non NWS site. Station does not report precipitation (e.g. rain,
    snow, etc.), thunder, or fog.

DCZ001-MDZ009-015-VAZ040>042-051-053>054-281700-
WASHINGTON METRO

CITY           SKY/WX    TMP DP  RH WIND       PRES   REMARKS
WASHINGTON NAT MOSUNNY   78  57  48 E3        30.22S
DULLES         MOSUNNY   79  58  48 NW6       30.22F
ANDREWS AFB    MOSUNNY   78  56  46 NE6       30.21S
FT BELVOIR     MOSUNNY   77  59  53 VRB2      30.21F
QUANTICO       MOSUNNY   77  59  53 S5        30.23S
COLLEGE PARK*  MOSUNNY   79  55  44 CALM      30.21F
LEESBURG*      SUNNY     79  61  53 S7        30.23S
MANASSAS*      SUNNY     77  59  53 CALM      30.22F
GAITHERSBURG*  SUNNY     75  55  50 CALM      30.26S

$$

MDZ006>007-011-014-281700-
BALTIMORE METRO

CITY           SKY/WX    TMP DP  RH WIND       PRES   REMARKS
BWI AIRPORT    MOSUNNY   77  56  48 VRB3      30.21F
MD SCIENCE CTR   N/A     79  56  45 MISG      30.21F
MARTIN STATE   MOSUNNY   77  63  61 SE6       30.23S
ANNAPOLIS      PTSUNNY   75  59  57 SE10      30.22S
FORT MEADE*    MOSUNNY   77  57  50 E3        30.24S

$$

MDZ012-015-019>023-281700-
MARYLAND EASTERN SHORE

CITY           SKY/WX    TMP DP  RH WIND       PRES   REMARKS
OCEAN CITY     SUNNY     79  58  48 NE10      30.21S
SALISBURY      SUNNY     79  55  43 VRB3      30.20F
BAY BRIDGE AP*   N/A     75  57  53 NW5       30.22S
CAMBRIDGE*     SUNNY     77  52  41 NE3       30.21S
EASTON*        MOSUNNY   79  57  47 N5        30.25S

$$

MDZ017>025-281700-
SOUTHERN MARYLAND

CITY           SKY/WX    TMP DP  RH WIND       PRES   REMARKS
PATUXENT RIVER MOSUNNY   78  56  46 N7        30.22S
ST INIGOES     SUNNY     79  61  53 NE8       30.21S
LEONARDTOWN*   MOSUNNY   77  57  50 CALM      30.23S

$$

MDZ003>005-281700-
NORTH CENTRAL MARYLAND

CITY           SKY/WX    TMP DP  RH WIND       PRES   REMARKS
FREDERICK*     MOSUNNY   79  57  47 W3        30.24F
HAGERSTOWN APT PTSUNNY   77  54  44 NW3       30.22F
WESTMINSTER*   SUNNY     73  54  49 W3        30.23S

$$

MDZ501>502-281700-
WESTERN MARYLAND

CITY           SKY/WX    TMP DP  RH WIND       PRES   REMARKS
OAKLAND*       MOSUNNY   68  52  56 NW3       30.29R
CUMBERLAND*    SUNNY     73  55  53 CALM      30.27S

$$

VAZ025>031-281700-
SHENANDOAH VALLEY

CITY           SKY/WX    TMP DP  RH WIND       PRES   REMARKS
WINCHESTER*    PTSUNNY   77  55  47 CALM      30.22F
FRONT ROYAL*   FAIR      75  59  57 CALM      30.21F
LURAY*         FAIR      77  55  47 CALM      30.21F
NEW MARKET*    FAIR      77  58  51 MISG      30.20F
STAUNTON*      MOSUNNY   79  58  49 SW7       30.25F
WAYNESBORO*    CLOUDY    76  59  55 W3        30.25S

$$

WVZ021-048>050-054>055-281700-
EASTERN WEST VIRGINIA PANHANDLE

CITY           SKY/WX    TMP DP  RH WIND       PRES   REMARKS
MARTINSBURG    MOSUNNY   75  56  51 SE5       30.23S
PETERSBURG*    SUNNY     74  58  56 N3        30.22F

$$

VAZ036>039-050-281700-
CENTRAL FOOTHILLS

CITY           SKY/WX    TMP DP  RH WIND       PRES   REMARKS
CHARLOTTESVILL MOSUNNY   76  60  57 SW3       30.22F
CULPEPER*      SUNNY     76  60  56 CALM      30.22F
ORANGE*        SUNNY     79  57  47 CALM      30.23F
GORDONSVILLE*  FAIR      78  61  55 S5        30.21F
WARRENTON*     FAIR      80  63  55 S3        30.21F

$$

VAZ055>057-281700-
NORTH AND CENTRAL PIEDMONT

CITY           SKY/WX    TMP DP  RH WIND       PRES   REMARKS
FREDERICKSBRG* SUNNY     81  60  48 CALM      30.21S
STAFFORD*      PTSUNNY   78  58  49 S5        30.26S

$$

NCZ024-NYZ072-PAZ021-071-VAZ022-071-281700-
OTHER REGIONAL OBSERVATIONS

CITY           SKY/WX    TMP DP  RH WIND       PRES   REMARKS
NEW YORK CITY  SUNNY     77  50  38 VRB3      30.22S
PHILADELPHIA   MOSUNNY   79  52  38 VRB6      30.20F
PITTSBURGH     MOSUNNY   74  53  48 NE3       30.23S
ROANOKE        MOSUNNY   76  60  57 CALM      30.25F
RICHMOND       MOSUNNY   81  57  43 VRB3      30.22S
RALEIGH        MOSUNNY   81  58  45 E8        30.22S

$$

ANZ530>537-281700-
MARINE OBSERVATIONS

STATION/POSITION TIME  TEMP    WIND        PRES
                       AIR SEA DIR/SP/G
                 (UTC) (F)     (DEG/KT/KT) (MB)
THOMAS PT LIGHT  NOT AVBL
BALT KEY BRIDGE  1500   72     150/  4/  5 1023.3R
COVE POINT       1500   72      30/  5/  7 1024.0R
LEWISETTA        1500   76 78   40/  3/  6 1022.9R
SOLOMONS ISLAND  1500      80                N/A
PINEY POINT      1500          300/  4/  5   N/A

$$



USA.gov is the U.S. government's official web portal to all federal, state and local government web resources and services.